sat.trackr.live / text

‹ back to catalog

HONGYUN 1

NORAD 43871 · 2018-108A

PAYLOAD ACTIVE UNKNOWN

§ Identity

Operator
Country
PRC
Launch date
2018-12-21
Launch site
JSC
Launch vehicle
Mass (kg)
RCS (m²)

External: N2YO · Heavens-Above · Gunter

§ Orbital elements

Epoch: 2026-05-25T05:18:04.845888Z

Period
106.57 min
Inclination
99.7563°
Eccentricity
0.0014610
Mean motion
13.51209826 rev/d
Perigee alt
1,056.9 km
Apogee alt
1,078.7 km
Semi-major
7,445.9 km
B*
1.0039e-4
RAAN
167.4455°
Arg perigee
110.8791°
Mean anomaly
249.3909°
Rev number
36,598

§ Raw data

HONGYUN 11 43871U 18108A   26145.22088942  .00000021  00000+0  10039-3 0  99922 43871  99.7563 167.4455 0014610 110.8791 249.3909 13.51209826365989

JSON: /api/v1/satellites/43871 · /tle

For live sub-satellite position, see the globe view (requires WebGL).

§ Visibility from observer

Set your observer location to see the next 7 days of passes ≥ 10°. The values pass through the URL so the page stays shareable.

No JS? Fill the form by hand. The geolocation button needs JavaScript.